sat.trackr.live / text

‹ back to catalog

SHIJIAN-6 01A (SJ-6 01A)

NORAD 28413 · 2004-035A

PAYLOAD ACTIVE UNKNOWN

§ Identity

Operator
Country
PRC
Launch date
2004-09-08
Launch site
TAISC
Launch vehicle
Mass (kg)
RCS (m²)
1.24

External: N2YO · Heavens-Above · Gunter

§ Orbital elements

Epoch: 2026-09-19T01:29:02.077440Z

Period
94.79 min
Inclination
97.5825°
Eccentricity
0.0006603
Mean motion
15.19133059 rev/d
Perigee alt
503.9 km
Apogee alt
513.0 km
Semi-major
6,886.6 km
B*
2.2538e-4
RAAN
289.4703°
Arg perigee
155.7679°
Mean anomaly
204.3867°
Rev number
20,171

§ Raw data

SHIJIAN-6 01A (SJ-6 01A)1 28413U 04035A   26262.06182960  .00004666  00000+0  22538-3 0  99942 28413  97.5825 289.4703 0006603 155.7679 204.3867 15.19133059201712

JSON: /api/v1/satellites/28413 · /tle

For live sub-satellite position, see the globe view (requires WebGL).

§ Visibility from observer

Set your observer location to see the next 7 days of passes ≥ 10°. The values pass through the URL so the page stays shareable.

No JS? Fill the form by hand. The geolocation button needs JavaScript.

§ Radio — SatNOGS DB

ModeDescriptionDownlinkUplink
FM S-band telemetry 2.230 GHz

1 transmitter · refreshed weekly from db.satnogs.org